{"data":{"norad_id":67033,"intl_designator":"2025-294D","name":"STARLINK-36137","alt_names":[],"object_type":"PAYLOAD","status":"ACTIVE","operator":null,"country":"US","launch_date":"2025-12-11","launch_site_code":"AFETR","launch_vehicle":null,"mission":null,"orbit_class":"UNKNOWN","rcs_meters":null,"size_class":null,"mass_kg":null,"dimensions":null,"purposes":["comms"],"wikipedia_slug":null,"has_3d_model":false,"image_url":null,"decayed_at":null,"tle_current":{"epoch":"2026-09-20T08:22:09.011424Z","epoch_age_seconds":94769,"freshness":"FRESH","line1":"1 67033U 25294D   26263.34871541  .00010076  00000+0  37511-3 0  9996","line2":"2 67033  43.0005  18.4157 0001253 283.8525  76.2187 15.27585528 44572","mean_motion":15.27585528,"eccentricity":0.0001253,"inclination_deg":43.0005,"raan_deg":18.4157,"arg_perigee_deg":283.8525,"mean_anomaly_deg":76.2187,"bstar":0.00037511,"rev_number":4457,"period_min":94.266407582777,"perigee_km":482.17283872511,"apogee_km":483.89224781266,"semimajor_km":6861.1695432689,"source":"CELESTRAK","updated_at":"2026-09-21T09:00:36.091610Z"}}}